This is the latest recevied weather packets stored in our database for station/object E25DQY-1. If no packets are shown the sender has not sent any weather packets the latest 10 day(s).
| Time | Temp. | Humidity | Pressure | Rain* | Wind** | Luminosity | Snow |
|---|---|---|---|---|---|---|---|
| 1778227814 | 28.89° C | 38% | 1002 hPa | - | - | 0 W/m² | - |
| 1778225992 | 28.89° C | 38% | 1002 hPa | - | - | 0 W/m² | - |
| 1778224170 | 29.44° C | 38% | 1002 hPa | - | - | 0 W/m² | - |
| 1778222348 | 28.89° C | 39% | 1003 hPa | - | - | 0 W/m² | - |
| 1778220526 | 28.89° C | 40% | 1004 hPa | - | - | 0 W/m² | - |
| 1778218703 | 28.33° C | 41% | 1004 hPa | - | - | 0 W/m² | - |
| 1778216881 | 27.78° C | 46% | 1005 hPa | - | - | 0 W/m² | - |
| 1778215059 | 27.22° C | 46% | 1006 hPa | - | - | 0 W/m² | - |
| 1778213237 | 27.78° C | 48% | 1006 hPa | - | - | 0 W/m² | - |
| 1778211415 | 27.22° C | 50% | 1006 hPa | - | - | 0 W/m² | - |
| 1778209593 | 27.78° C | 50% | 1006 hPa | - | - | 0 W/m² | - |
| 1778207771 | 27.22° C | 50% | 1006 hPa | - | - | 0 W/m² | - |
| 1778205949 | 27.22° C | 54% | 1006 hPa | - | - | 0 W/m² | - |
| 1778204127 | 27.22° C | 56% | 1006 hPa | - | - | 0 W/m² | - |
| 1778202304 | 26.67° C | 59% | 1006 hPa | - | - | 0 W/m² | - |
| 1778200482 | 26.67° C | 61% | 1005 hPa | - | - | 0 W/m² | - |
| 1778198660 | 26.67° C | 63% | 1005 hPa | - | - | 0 W/m² | - |
| 1778196837 | 26.11° C | 65% | 1004 hPa | - | - | 0 W/m² | - |
| 1778195014 | 26.11° C | 66% | 1004 hPa | - | - | 0 W/m² | - |
| 1778193192 | 26.11° C | 65% | 1004 hPa | - | - | 0 W/m² | - |
| 1778191370 | 26.11° C | 65% | 1004 hPa | - | - | 0 W/m² | - |
| 1778189522 | 26.11° C | 66% | 1004 hPa | - | - | 0 W/m² | - |
| 1778187700 | 26.11° C | 66% | 1004 hPa | - | - | 0 W/m² | - |
| 1778185878 | 26.11° C | 64% | 1003 hPa | - | - | 0 W/m² | - |
| 1778184056 | 26.11° C | 64% | 1003 hPa | - | - | 0 W/m² | - |
* Rain since midnight (hover to see other rain measurements)
** Current wind speed in m/s (hover to see current wind gust speed)